Weather History for Jackson, WY

Change the Weather History Date:

Saturday, November 24, 2012

  Actual Average Record
Temperature  
Mean Temperature 32 °F -  
Max Temperature 44 °F 32 °F 46 °F (1976)
Min Temperature 21 °F 9 °F -17 °F (1982)
Degree Days  
Heating Degree Days 32    
Moisture  
Dew Point 24 °F    
Average Humidity 74    
Maximum Humidity 100    
Minimum Humidity 34    
Precipitation  
Precipitation 0.13 in - - ()
Sea Level Pressure  
Sea Level Pressure 30.15 in    
Wind  
Wind Speed 7 mph (SSW)    
Max Wind Speed 22 mph    
Max Gust Speed 34 mph    
Visibility 9 miles    
Events Snow    
Averages and records for this station are not official NWS values.
T = Trace of Precipitation, MM = Missing Value Source: NWS Daily Summary

Daily Weather History Graph

Daily Weather History Graph

Search for Another Location

Airport:

Trip Planner

Search our weather history database for the weather conditions in past years. The results will help you decide how hot, cold, wet, or windy it might be!

Date:

Astronomy

Nov. 24, 2012 Rise Set
Actual Time 7:28 AM MST 4:50 PM MST
Civil Twilight 6:57 AM MST 5:22 PM MST
Nautical Twilight 6:21 AM MST 5:57 PM MST
Astronomical Twilight 5:47 AM MST 6:31 PM MST
Moon 2:41 PM MST (11/24) 3:43 AM MST (11/24)
Length of Visible Light 10h 24m
Length of Day
9h 21m
Waxing Gibbous, 87% of the Moon is Illuminated
Nov 24
Waxing Gibbous
Nov 28
Full
Dec 6
Last Quarter
Dec 13
New
Dec 19
First Quarter

Hourly Weather History & Observations

Time (MST) Temp. Windchill Dew Point Humidity Pressure Visibility Wind Dir Wind Speed Gust Speed Precip Events Conditions
12:15 AM 23.0 °F 14.7 °F 21.2 °F 93% 30.27 in 10.0 mi NNE 6.9 mph - N/A   Partly Cloudy
12:35 AM 21.2 °F 14.9 °F 19.4 °F 93% 30.27 in 10.0 mi NE 4.6 mph - N/A   Partly Cloudy
12:55 AM 21.2 °F 16.4 °F 19.4 °F 93% 30.26 in 10.0 mi ENE 3.5 mph - N/A   Clear
1:15 AM 21.2 °F 12.6 °F 19.4 °F 93% 30.25 in 10.0 mi NNE 6.9 mph - N/A   Clear
1:35 AM 21.2 °F 13.6 °F 19.4 °F 93% 30.25 in 10.0 mi NNE 5.8 mph - N/A   Clear
1:55 AM 21.2 °F 16.4 °F 19.4 °F 93% 30.25 in 10.0 mi NE 3.5 mph - N/A   Clear
2:15 AM 21.2 °F 12.6 °F 19.4 °F 93% 30.25 in 10.0 mi NNE 6.9 mph - N/A   Clear
3:15 AM 21.2 °F 16.4 °F 19.4 °F 93% 30.23 in 10.0 mi NE 3.5 mph - N/A   Partly Cloudy
3:35 AM 23.0 °F 18.4 °F 21.2 °F 93% 30.23 in 10.0 mi East 3.5 mph - N/A   Partly Cloudy
3:55 AM 28.4 °F - 21.2 °F 74% 30.23 in 10.0 mi Calm Calm - N/A   Partly Cloudy
4:15 AM 28.4 °F 23.3 °F 21.2 °F 74% 30.22 in 10.0 mi East 4.6 mph - N/A   Partly Cloudy
4:35 AM 30.2 °F 25.4 °F 21.2 °F 69% 30.21 in 10.0 mi SE 4.6 mph - N/A   Clear
4:55 AM 30.2 °F 25.4 °F 21.2 °F 69% 30.20 in 10.0 mi East 4.6 mph - N/A   Clear
5:15 AM 30.2 °F 25.4 °F 21.2 °F 69% 30.19 in 10.0 mi East 4.6 mph - N/A   Clear
5:35 AM 33.8 °F 30.8 °F 19.4 °F 56% 30.19 in 10.0 mi SW 3.5 mph - N/A   Partly Cloudy
5:55 AM 33.8 °F 27.7 °F 19.4 °F 56% 30.18 in 10.0 mi SSW 6.9 mph - N/A   Mostly Cloudy
6:15 AM 37.4 °F 28.9 °F 17.6 °F 45% 30.17 in 10.0 mi SW 13.8 mph 21.9 mph N/A   Overcast
6:35 AM 35.6 °F 29.2 °F 17.6 °F 48% 30.18 in 10.0 mi SW 8.1 mph - N/A   Scattered Clouds
6:51 AM 35.6 °F 29.2 °F 17.6 °F 48% 30.17 in 10.0 mi SW 8.1 mph - N/A   Scattered Clouds
7:51 AM 35.6 °F 27.5 °F 17.6 °F 48% 30.16 in 10.0 mi SW 11.5 mph 17.3 mph N/A   Mostly Cloudy
8:53 AM 39.2 °F 32.0 °F 17.6 °F 42% 30.17 in 10.0 mi SW 11.5 mph 17.3 mph N/A   Mostly Cloudy
9:51 AM 41.0 °F 34.3 °F 17.6 °F 39% 30.17 in 10.0 mi SW 11.5 mph - N/A   Overcast
10:52 AM 42.8 °F 35.1 °F 19.4 °F 39% 30.17 in 10.0 mi South 16.1 mph - N/A   Overcast
11:52 AM 44.6 °F 37.2 °F 17.6 °F 34% 30.12 in 10.0 mi South 17.3 mph 28.8 mph N/A   Overcast
12:52 PM 44.6 °F 37.2 °F 19.4 °F 37% 30.11 in 10.0 mi South 17.3 mph 34.5 mph N/A   Overcast
1:52 PM 42.8 °F 38.0 °F 28.4 °F 57% 30.11 in 10.0 mi SW 8.1 mph - N/A   Unknown
2:55 PM 42.8 °F 36.6 °F 28.4 °F 57% 30.09 in 10.0 mi SSW 11.5 mph 18.4 mph N/A   Unknown
3:51 PM 42.8 °F 33.8 °F 28.4 °F 57% 30.08 in 10.0 mi SSE 21.9 mph 28.8 mph N/A   Unknown
4:58 PM 39.2 °F 29.0 °F 30.2 °F 70% 30.07 in 7.0 mi South 21.9 mph 27.6 mph N/A   Overcast
5:54 PM 35.6 °F 28.0 °F 33.8 °F 93% 30.08 in 8.0 mi South 10.4 mph 20.7 mph N/A Snow Light Snow
6:58 PM 33.8 °F 27.7 °F 33.8 °F 100% 30.07 in 4.0 mi SW 6.9 mph - N/A Snow Light Snow
7:53 PM 33.8 °F 27.7 °F 33.8 °F 100% 30.06 in 2.5 mi SW 6.9 mph - N/A Snow Light Snow
8:51 PM 33.8 °F 28.6 °F 33.8 °F 100% 30.05 in 4.0 mi WSW 5.8 mph - N/A Snow Light Snow
9:35 PM 33.8 °F 28.6 °F 32.0 °F 93% 30.04 in 4.0 mi West 5.8 mph - 0.05 in   Overcast
9:55 PM 33.8 °F 29.6 °F 32.0 °F 93% 30.04 in 3.0 mi WSW 4.6 mph - 0.08 in   Overcast
10:15 PM 33.8 °F 30.8 °F 32.0 °F 93% 30.03 in 6.0 mi WSW 3.5 mph - 0.03 in   Overcast
10:35 PM 33.8 °F 30.8 °F 32.0 °F 93% 30.03 in 7.0 mi SW 3.5 mph - 0.05 in   Overcast
11:15 PM 33.8 °F 27.7 °F 32.0 °F 93% 30.01 in 10.0 mi WSW 6.9 mph - N/A   Overcast
11:35 PM 33.8 °F 29.6 °F 32.0 °F 93% 30.01 in 10.0 mi SW 4.6 mph - N/A   Overcast
11:55 PM 35.6 °F 26.2 °F 33.8 °F 93% 30.00 in 10.0 mi South 15.0 mph 20.7 mph N/A   Overcast